Location: Asheville, NC
(35.6000°N, 82.5500°W)
Time: 09:42:33
(UTC-04:00)

Vanguard 1 - Pass Details

Date: 08 March 2018
Orbit: 650 x 3833 km, 34.3° (Epoch: 24 June)

Event Time Altitude Azimuth Distance (km) Brightness Sun altitude
Rises 09:47:05 0° 231° (SW) 7,550 14.4 32.7°
Reaches altitude 10° 09:51:58 10° 228° (SW) 6,733 14.3 33.5°
Maximum altitude 10:15:00 64° 154° (SSE) 3,907 14.4 37.1°
Drops below altitude 10° 10:33:09 10° 79° (ENE) 5,508 14.4 39.8°
Sets 10:36:39 0° 76° (ENE) 6,181 14.4 40.2°
